Tracking 17557 objects as of 7-February-2016
HD Live streaming from Space Station
objects crossing your sky now

ATLAS 55E R/B

Track ATLAS 55E R/B now!
10-day predictions


NORAD ID: 16137
Int'l Code: 1985-093B
Perigee: 882.3 km
Apogee: 20,415.0 km
Inclination: 63.6 °
Period: 368.3 minutes
Semi major axis: 17019 km
RCS: 2.2883 m2 (large)
Launch date: October 9, 1985
Source: United States (US)
Launch site: AIR FORCE WESTERN TEST RANGE (AFWTR)

Note: This is a ROCKET BODY
Your satellite tracking list
Your tracking list is empty





NASA's NSSDC Master Catalog

Two Line Element Set (TLE):
1 16137U 85093B   16037.29488237 -.00000071 +00000-0 +00000-0 0  9992
2 16137 063.5884 145.0715 5738281 000.7823 006.9958 03.9133499433111
Source of the keplerian elements: AFSPC

N2YO: 580